Location: Brompton
(51.4000°N, 0.5333°E)
Time: 15:29:35
(UTC+00:00)

USA 215 - Pass Details

Date: 27 September 2021
Orbit: 1102 x 1106 km, 123.0° (Epoch: 24 October)

Event Time Altitude Azimuth Distance (km) Brightness Sun altitude
Exits shadow 21:14:38 27° 218° (SW) 1,976 4.5 -31.0°
Maximum altitude 21:15:31 28° 231° (SW) 1,942 4.5 -31.1°
Drops below altitude 10° 21:21:00 10° 288° (WNW) 2,965 6.2 -31.7°
Sets 21:23:55 0° 300° (WNW) 3,926 7.2 -32.0°
